Location: ?????
(31.8092°N, 35.2590°E)
Time: 19:20:26
(UTC+00:00)

Cosmos 2322 Rocket - Pass Details

Date: 20 June 2021
Orbit: 833 x 850 km, 71.0° (Epoch: 02 August)

Event Time Altitude Azimuth Distance (km) Brightness Sun altitude
Rises 17:13:57 0° 191° (S) 3,391 5.1 -5.7°
Reaches altitude 10° 17:16:23 10° 189° (S) 2,461 4.4 -6.1°
Maximum altitude 17:21:59 67° 107° (ESE) 917 2.2 -7.1°
Drops below altitude 10° 17:27:38 10° 26° (NNE) 2,479 4.8 -8.1°
Sets 17:30:06 0° 24° (NNE) 3,417 5.5 -8.5°
